SCP
0 0 0 0 0 0 0 0 0 0 0 0 0 0 0 0 0 0 0 0 0 0 0 0 0 0 0 0 0 0 0 0 0 0 0 0 0 0 0 0 0 0 0 0 0 0 0 0 0
0 0 0 0 0 0 0 0 0 0 0 0 0 0 0 0 0 0 0 0 0 0 0 0 0 0 0 0 0 0 0 0 0 0 0 0 0 0 0 0 0 0 0 0 0 0 0 0 0
0 0 0 0 0 0 0 0 0 0 0 0 0 0 0 0 0 0 0 0 0 0 0 0 0 0 0 0 0 0 0 0 0 0 0 0 0 0 0 0 0 0 0 0 0 0 0 0 0
0 0 0 0 0 0 0 0 0 0 0 0 0 0 0 0 0 0 0 0 0 0 0 0 0 0 0 0 0 0 0 0 0 0 0 0 0 0 0 0 0 0 0 0 0 0 0 0 0
0 0 0 0 0 0 0 0 0 0 0 0 0 0 0 0 0 0 0 0 0 0 0 0 0 0 0 0 0 0 0 0 0 0 0 0 0 0 0 0 0 0 0 0 0 0 0 0 0
0 0 0 0 0 0 0 0 0 0 0 0 0 0 0 0 0 0 0 0 0 0 0 0 0 0 0 0 0 0 0 0 0 0 0 0 0 0 0 0 0 0 0 0 0 0 0 0 0
0 0 0 0 0 0 0 0 0 0 0 0 0 0 0 0 0 0 0 0 0 0 0 0 0 0 0 0 0 0 0 0 0 0 0 0 0 0 0 0 0 0 0 0 0 0 0 0 0
0 0 0 0 0 0 0 0 0 0 0 0 0 0 0 0 0 0 0 0 0 0 0 0 0 0 0 0 0 0 0 0 0 0 0 0 0 0 0 0 0 0 0 0 0 0 0 0 0
0 0 0 0 0 0 0 0 0 0 0 0 0 0 0 0 0 0 0 0 0 0 0 0 0 0 0 0 0 0 0 0 0 0 0 0 0 0 0 0 0 0 0 0 0 0 0 0 0
0 0 0 0 0 0 0 0 0 0 0 0 0 0 0 0 0 0 0 0 0 0 0 0 0 0 0 0 0 0 0 0 0 0 0 0 0 0 0 0 0 0 0 0 0 0 0 0 0
0 0 0 0 0 0 0 0 0 0 0 0 0 0 0 0 0 0 0 0 0 0 0 0 0 0 0 0 0 0 0 0 0 0 0 0 0 0 0 0 0 0 0 0 0 0 0 0 0
0 0 0 0 0 0 0 0 0 0 0 0 0 0 0 0 0 0 0 0 0 0 0 0 0 0 0 0 0 0 0 0 0 0 0 0 0 0 0 0 0 0 0 0 0 0 0 0 0
0 0 0 0 0 0 0 0 0 0 0 0 0 0 0 0 0 0 0 0 0 0 0 0 0 0 0 0 0 0 0 0 0 0 0 0 0 0 0 0 0 0 0 0 0 0 0 0 0
0 0 0 0 0 0 0 0 0 0 0 0 0 0 0 0 0 0 0 0 0 0 0 0 0 0 0 0 0 0 0 0 0 0 0 0 0 0 0 0 0 0 0 0 0 0 0 0 0
0 0 0 0 0 0 0 0 0 0 0 0 0 0 0 0 0 0 0 0 0 0 0 0 0 0 0 0 0 0 0 0 0 0 0 0 0 0 0 0 0 0 0 0 0 0 0 0 0
0 0 0 0 0 0 0 0 0 0 0 0 0 0 0 0 0 0 0 0 0 0 0 0 0 0 0 0 0 0 0 0 0 0 0 0 0 0 0 0 0 0 0 0 0 0 0 0 0
0 0 0 0 0 0 0 0 0 0 0 0 0 0 0 0 0 0 0 0 0 0 0 0 0 0 0 0 0 0 0 0 0 0 0 0 0 0 0 0 0 0 0 0 0 0 0 0 0
0 0 0 0 0 0 0 0 0 0 0 0 0 0 0 0 0 0 0 0 0 0 0 0 0 0 0 0 0 0 0 0 0 0 0 0 0 0 0 0 0 0 0 0 0 0 0 0 0
0 0 0 0 0 0 0 0 0 0 0 0 0 0 0 0 0 0 0 0 0 0 0 0 0 0 0 0 0 0 0 0 0 0 0 0 0 0 0 0 0 0 0 0 0 0 0 0 0
0 0 0 0 0 0 0 0 0 0 0 0 0 0 0 0 0 0 0 0 0 0 0 0 0 0 0 0 0 0 0 0 0 0 0 0 0 0 0 0 0 0 0 0 0 0 0 0 0
0 0 0 0 0 0 0 0 0 0 0 0 0 0 0 0 0 0 0 0 0 0 0 0 0 0 0 0 0 0 0 0 0 0 0 0 0 0 0 0 0 0 0 0 0 0 0 0 0
0 0 0 0 0 0 0 0 0 0 0 0 0 0 0 0 0 0 0 0 0 0 0 0 0 0 0 0 0 0 0 0 0 0 0 0 0 0 0 0 0 0 0 0 0 0 0 0 0
0 0 0 0 0 0 0 0 0 0 0 0 0 0 0 0 0 0 0 0 0 0 0 0 0 0 0 0 0 0 0 0 0 0 0 0 0 0 0 0 0 0 0 0 0 0 0 0 0
0 0 0 0 0 0 0 0 0 0 0 0 0 0 0 0 0 0 0 0 0 0 0 0 0 0 0 0 0 0 0 0 0 0 0 0 0 0 0 0 0 0 0 0 0 0 0 0 0
0 0 0 0 0 0 0 0 0 0 0 0 0 0 0 0 0 0 0 0 0 0 0 0 0 0 0 0 0 0 0 0 0 0 0 0 0 0 0 0 0 0 0 0 0 0 0 0 0
0 0 0 0 0 0 0 0 0 0 0 0 0 0 0 0 0 0 0 0 0 0 0 0 0 0 0 0 0 0 0 0 0 0 0 0 0 0 0 0 0 0 0 0 0 0 0 0 0
0 0 0 0 0 0 0 0 0 0 0 0 0 0 0 0 0 0 0 0 0 0 0 0 0 0 0 0 0 0 0 0 0 0 0 0 0 0 0 0 0 0 0 0 0 0 0 0 0
0 0 0 0 0 0 0 0 0 0 0 0 0 0 0 0 0 0 0 0 0 0 0 0 0 0 0 0 0 0 0 0 0 0 0 0 0 0 0 0 0 0 0 0 0 0 0 0 0
0 0 0 0 0 0 0 0 0 0 0 0 0 0 0 0 0 0 0 0 0 0 0 0 0 0 0 0 0 0 0 0 0 0 0 0 0 0 0 0 0 0 0 0 0 0 0 0 0
0 0 0 0 0 0 0 0 0 0 0 0 0 0 0 0 0 0 0 0 0 0 0 0 0 0 0 0 0 0 0 0 0 0 0 0 0 0 0 0 0 0 0 0 0 0 0 0 0
Wind_Speed
3 2 2 3 2 3 7 5 5 5 5 6 6 5 7 7 6 7 5 4 4 5 6 6 7 7 8 8 9 9 9 10 10 10 11 11 10 10 9 8 9 9 8 9 9 8 9 8 8
1 1 3 2 1 5 7 5 6 6 7 6 5 6 7 8 7 7 5 4 4 6 6 7 8 7 8 8 9 9 10 10 10 10 11 11 11 11 10 9 9 9 9 9 9 9 9 8 8
1 2 1 0 3 4 7 6 7 8 5 3 5 5 6 6 5 5 5 5 5 6 6 8 7 7 8 8 9 10 10 10 10 10 11 11 11 10 10 10 10 10 10 10 10 9 9 9 9
2 1 1 3 8 6 6 7 7 7 5 4 5 7 6 6 4 6 7 6 6 6 6 8 7 8 8 8 9 10 10 10 10 10 10 11 11 10 10 10 10 10 10 10 10 10 10 9 9
1 1 4 6 7 6 6 5 4 5 5 5 5 7 7 6 6 7 7 6 6 6 6 8 8 8 8 8 9 9 9 10 10 10 11 11 11 11 10 10 10 10 11 10 10 10 9 9 9
1 1 4 6 7 7 6 5 5 6 6 5 5 7 7 6 7 7 7 6 6 6 6 7 8 7 7 8 8 9 9 9 10 10 11 11 11 12 12 12 11 11 11 11 10 10 9 9 9
0 2 4 7 7 6 5 4 4 5 5 4 3 6 7 6 6 7 7 7 6 6 6 5 6 6 7 8 8 8 9 9 10 10 11 11 11 11 12 12 11 11 11 11 10 10 10 9 9
1 2 5 5 6 6 5 4 4 3 5 4 2 4 6 7 6 7 7 7 6 6 5 5 5 5 5 6 7 8 9 9 9 9 9 8 9 9 9 10 11 11 10 10 10 9 9 9 9
2 2 4 4 4 6 6 5 4 4 6 5 4 5 7 9 8 7 6 6 6 5 5 4 4 5 5 5 6 6 7 7 6 7 6 4 5 7 7 11 10 10 10 9 9 9 8 6 7
1 2 3 3 3 6 6 4 5 5 5 5 6 7 9 9 8 7 6 5 5 5 5 4 4 4 4 4 3 3 4 4 4 5 5 4 5 5 6 8 9 9 8 8 8 6 4 2 3
1 2 4 4 5 5 6 5 4 4 4 3 5 7 9 8 7 6 5 5 5 4 4 4 3 4 4 3 3 2 2 3 4 5 5 4 4 3 4 3 4 4 4 5 4 3 4 4 4
4 4 4 4 5 4 4 5 4 2 3 3 5 7 8 7 6 5 4 4 4 4 4 4 3 3 3 3 3 2 2 2 3 3 5 4 3 3 4 3 4 3 3 4 4 3 5 4 4
5 5 5 6 6 5 5 4 3 3 3 4 6 7 6 6 5 4 4 4 4 4 3 3 3 3 3 3 2 2 3 3 3 3 3 4 3 4 3 3 3 4 3 3 3 4 5 4 4
6 7 6 5 5 4 4 3 2 3 4 5 7 6 5 5 5 4 4 3 3 3 3 3 3 3 3 3 2 2 2 2 2 3 3 4 3 3 3 3 3 3 3 3 3 4 3 3 3
8 7 5 3 3 3 3 3 2 3 4 5 6 5 5 5 5 4 4 3 3 3 3 3 2 2 2 2 2 2 2 2 2 2 2 3 3 3 3 3 3 3 3 3 3 4 3 3 3
6 5 4 3 2 2 4 3 3 3 4 4 4 5 5 5 4 4 3 3 2 3 3 4 2 2 3 2 2 2 2 2 2 2 2 3 3 3 3 3 3 3 2 2 3 3 3 2 2
6 5 4 4 2 3 4 2 3 3 5 5 5 4 5 5 4 4 3 3 3 3 3 4 3 3 3 3 2 2 2 2 2 1 1 2 2 2 2 2 2 2 2 2 2 3 3 3 3
5 5 4 4 4 4 4 3 3 4 5 5 5 5 5 5 5 4 3 3 3 3 3 3 4 3 3 2 2 2 2 2 2 1 1 2 1 2 2 1 2 2 1 2 2 2 2 2 2
3 4 4 3 3 4 4 4 4 5 5 6 5 5 5 6 5 4 4 4 4 3 3 3 4 3 3 2 1 1 1 1 1 1 2 2 1 1 1 1 1 1 1 2 2 2 2 2 2
6 5 4 4 4 4 4 6 5 5 7 6 6 5 6 6 5 5 4 4 4 4 4 4 4 3 3 2 1 1 1 1 1 1 1 1 2 1 1 1 1 1 1 1 2 1 1 1 2
7 6 5 4 4 6 5 7 7 6 7 6 6 6 6 6 7 6 6 5 5 5 5 4 4 4 3 3 2 2 2 1 1 0 0 1 1 1 1 1 1 1 1 1 1 1 1 2 1
6 4 5 6 7 4 6 5 5 7 7 7 7 6 6 6 6 6 6 6 6 5 5 4 4 4 3 3 3 3 1 1 0 1 0 1 1 1 1 1 2 1 1 1 1 1 2 2 2
3 3 5 7 7 7 7 7 3 6 6 7 7 7 6 5 5 6 5 5 5 5 4 4 4 4 4 3 3 3 2 1 0 0 1 1 1 1 1 1 1 2 1 1 1 1 2 2 3
4 5 5 6 7 9 6 8 4 4 5 5 6 7 6 6 5 5 4 4 5 5 4 4 4 4 4 3 4 3 2 2 1 1 1 1 1 1 1 1 2 2 2 2 2 2 2 3 3
7 7 5 6 6 5 3 6 4 1 3 4 4 5 6 6 5 5 5 5 5 5 5 5 5 4 4 4 4 4 3 3 3 2 2 2 2 1 2 2 2 2 2 2 2 2 3 3 3
8 9 6 5 5 3 5 7 2 1 2 4 4 4 5 6 6 6 6 5 5 5 5 5 5 5 4 4 4 4 3 2 2 2 2 2 2 2 3 3 3 3 3 2 2 3 3 3 3
6 8 6 7 6 7 5 5 4 3 4 3 3 4 5 6 6 6 6 5 5 5 5 6 5 5 4 4 4 4 3 3 2 2 2 2 2 3 3 3 3 3 3 3 3 3 3 3 3
4 4 5 6 6 7 6 7 4 5 5 4 5 5 4 5 5 5 5 5 4 4 4 4 5 5 4 4 3 3 3 3 3 2 2 2 2 3 3 3 3 3 3 3 3 3 3 4 3
4 5 6 6 6 7 6 2 0 3 4 5 5 5 5 5 5 5 5 5 4 4 4 4 4 4 4 4 3 3 3 3 3 2 3 3 3 3 3 3 3 3 3 3 3 4 4 4 4
6 7 7 7 7 7 7 3 2 2 3 4 4 3 4 4 4 4 4 5 4 4 4 4 4 4 3 3 3 3 2 2 2 2 3 3 3 3 3 3 3 3 3 3 4 4 5 5 5
Wind_Direction
207 215 231 237 210 104 85 81 86 98 83 68 62 62 67 48 34 69 83 77 72 73 73 81 66 65 65 63 66 68 67 66 65 64 62 62 66 71 72 72 72 70 72 75 73 73 67 63 61
271 244 240 245 182 116 93 90 92 82 95 103 83 75 77 70 57 86 97 88 85 76 70 68 66 63 65 64 67 67 67 67 66 64 63 62 64 68 71 72 73 71 72 73 70 68 68 63 59
190 269 295 101 87 89 102 102 99 97 100 100 90 67 57 66 76 90 91 108 95 82 76 75 62 65 65 63 65 67 68 69 69 67 65 63 62 65 67 68 70 72 72 71 67 65 67 63 61
239 207 176 107 96 77 97 110 117 122 107 82 98 90 77 54 65 90 106 108 97 89 84 82 69 69 67 64 65 68 68 68 69 69 68 65 62 64 67 68 69 71 72 68 65 62 63 65 63
252 215 128 114 100 94 96 106 127 118 104 95 96 95 88 72 84 102 108 101 95 89 86 88 75 70 70 68 65 66 68 66 67 68 68 66 63 61 66 67 66 67 70 67 64 61 60 63 63
182 185 146 126 114 108 108 109 114 103 101 98 99 102 88 94 103 105 102 97 92 90 88 92 90 76 71 70 66 65 67 66 66 67 68 67 65 63 62 62 63 64 65 65 64 62 60 62 62
78 126 123 127 127 120 106 105 106 109 101 86 92 104 109 110 107 111 105 99 93 90 89 89 93 97 89 75 67 67 66 65 66 66 68 68 69 67 63 63 62 64 64 63 62 60 57 59 61
10 142 138 140 143 121 117 119 96 99 90 80 82 109 124 130 126 118 111 105 98 91 84 81 83 84 91 92 80 76 72 67 68 67 67 71 80 79 72 69 64 63 63 61 60 59 58 59 61
248 175 152 144 150 126 131 131 110 91 108 98 76 70 103 124 131 125 116 109 100 92 88 85 76 75 76 80 89 90 88 77 84 85 81 80 75 72 74 62 61 61 59 59 58 58 60 63 77
217 169 115 108 130 129 131 127 133 137 119 113 102 97 118 132 138 133 123 118 107 97 92 90 85 82 80 76 85 75 76 76 63 67 68 60 58 57 59 76 66 63 60 65 61 57 68 43 67
95 114 114 118 118 128 134 123 121 153 127 127 133 131 138 143 144 138 130 124 107 99 88 80 78 80 80 78 71 69 66 65 62 58 61 58 61 66 60 68 80 72 64 55 63 51 40 40 44
113 91 112 120 120 132 139 136 126 108 88 98 124 135 144 150 149 144 134 120 111 104 96 85 82 84 80 80 79 84 81 74 68 61 56 53 54 50 51 50 49 45 42 36 35 35 42 39 46
124 108 102 108 113 114 121 131 128 115 99 112 122 129 141 149 150 143 130 121 118 110 102 94 87 88 85 78 76 87 82 74 78 65 57 56 50 51 50 52 49 43 37 34 34 35 38 32 35
118 118 113 116 119 120 124 131 160 137 133 137 137 139 150 151 152 145 139 132 126 126 116 106 103 97 96 96 92 80 82 88 80 76 67 61 57 53 46 49 46 42 35 31 31 37 34 31 33
134 129 124 122 140 148 172 165 179 140 150 153 151 150 153 157 157 157 151 147 141 139 133 114 111 111 105 92 80 78 82 90 84 77 63 59 52 51 48 43 46 42 39 40 37 39 33 39 36
173 179 169 138 156 170 221 188 151 159 176 172 166 162 166 169 174 170 158 155 143 137 132 119 118 121 109 96 89 95 95 89 82 71 53 53 51 49 48 43 42 39 36 33 33 25 26 30 24
200 199 184 163 176 196 219 204 176 179 198 196 188 183 183 183 187 181 174 168 157 150 143 131 125 122 112 102 96 88 96 89 80 72 58 49 47 40 52 41 31 34 30 28 24 23 9 16 10
198 207 202 191 170 199 212 216 199 197 211 216 206 200 198 199 194 185 178 170 161 154 152 137 126 127 118 116 113 99 93 89 80 63 42 38 33 39 48 39 28 23 17 21 23 24 14 6 354
212 219 219 197 175 214 220 234 225 196 209 219 218 216 211 205 191 176 170 169 166 161 163 148 140 141 136 136 142 123 116 104 87 58 32 24 13 20 48 14 21 3 356 2 9 13 9 12 356
211 218 220 192 181 220 225 244 233 211 215 221 226 223 221 209 193 175 176 173 177 174 176 167 158 152 148 153 147 134 125 119 84 71 53 21 12 6 13 358 4 4 343 358 14 18 344 5 346
221 237 235 227 197 213 234 237 219 207 214 217 225 226 223 213 202 188 184 184 184 188 189 183 170 161 160 157 136 128 122 113 114 118 88 359 358 359 343 330 336 336 316 350 337 326 327 323 324
232 238 238 222 229 224 234 257 210 204 205 218 222 220 221 213 206 198 190 186 191 194 193 194 182 169 161 161 157 159 165 180 265 280 220 256 292 323 328 325 312 307 317 308 292 303 296 290 297
248 211 222 233 245 248 224 254 220 190 216 223 216 211 211 207 200 199 196 193 192 189 190 196 187 175 166 176 174 196 197 211 222 255 281 268 264 275 282 295 289 295 296 294 297 288 287 276 286
188 196 205 220 237 245 231 245 245 197 218 217 209 209 206 201 196 193 182 183 183 178 181 186 186 183 177 187 194 205 200 206 210 247 273 273 268 264 252 262 272 281 288 289 284 271 273 281 279
212 231 229 220 224 238 192 238 251 186 210 225 215 206 202 194 191 189 180 179 177 176 179 183 186 185 184 192 204 209 213 220 223 236 247 261 264 264 273 258 261 271 275 274 275 269 273 273 274
220 237 254 263 260 246 204 236 226 148 217 228 217 204 192 191 190 188 184 183 181 180 183 185 186 191 191 198 208 211 212 226 236 242 252 260 267 271 275 270 264 267 272 270 271 274 276 280 276
227 225 257 274 269 259 225 221 225 196 216 217 207 198 190 187 188 189 183 185 184 182 186 191 190 193 195 202 207 213 211 215 228 242 249 261 274 282 277 267 265 260 264 267 267 269 276 278 278
280 238 221 243 260 255 242 237 233 207 220 212 209 205 194 185 184 188 187 187 185 184 186 188 195 196 199 203 204 215 214 213 225 241 255 264 275 284 280 274 273 264 258 257 257 271 276 273 273
197 214 231 243 259 269 266 249 22 246 226 222 217 210 198 189 186 187 187 185 182 180 182 185 188 191 193 196 199 209 214 215 214 233 258 268 267 274 278 280 280 274 268 268 257 260 266 267 270
249 239 234 246 243 249 271 273 107 260 260 245 235 222 205 194 189 187 182 181 181 183 184 188 186 187 189 191 194 206 206 218 227 239 261 270 272 275 283 282 278 280 276 278 280 265 263 267 274